Location: ??????
(38.3184°N, 23.6932°E)
Time: 01:40:16
(UTC+00:00)

Cosmos 489 Rocket - Pass Details

Date: 16 October 2021
Orbit: 953 x 983 km, 74.0° (Epoch: 04 December)

Event Time Altitude Azimuth Distance (km) Brightness Sun altitude
Rises 17:17:18 0° 345° (NNW) 3,637 7.7 -18.7°
Reaches altitude 10° 17:19:53 10° 349° (N) 2,686 7.0 -19.2°
Maximum altitude 17:26:00 58° 69° (ENE) 1,104 4.4 -20.4°
Enters shadow 17:29:09 29° 136° (SE) 1,682 5.3 -21.0°
